Estación de Rauco

Ultimos registro cada 15 minutos 24
Estación Fecha / Hora Temperatura Humedad Lluvia Velocidad Dirección Radiación Presion
24 Rauco 06-05-2026 05:45 10,7 90 0 1,3 175 0 1012,9
23 Rauco 06-05-2026 05:30 10,6 91 0 0 175 0 1013,1
22 Rauco 06-05-2026 05:15 10,3 91 0 0,4 175 0 1013
21 Rauco 06-05-2026 05:00 10,3 91 0 0 175 0 1013,2
20 Rauco 06-05-2026 04:45 9,9 91 0 0 175 0 1013,3
19 Rauco 06-05-2026 04:30 10,1 90 0 0 175 0 1013
18 Rauco 06-05-2026 04:15 10,4 91 0 0,4 175 0 1013,1
17 Rauco 06-05-2026 04:00 10,4 91 0 0 175 0 1013,2
16 Rauco 06-05-2026 03:45 10,4 90 0 0 175 0 1013,5
15 Rauco 06-05-2026 03:30 10,6 90 0 0,9 84 0 1013,7
14 Rauco 06-05-2026 03:15 10,7 90 0 1,8 116 0 1013,7
13 Rauco 06-05-2026 03:00 11,1 89 0 1,8 175 0 1013,7
12 Rauco 06-05-2026 02:45 11,4 88 0 0,9 175 0 1013,6
11 Rauco 06-05-2026 02:30 11,8 86 0 0,4 175 0 1014,1
10 Rauco 06-05-2026 02:15 12,7 83 0 1,3 112 0 1014
9 Rauco 06-05-2026 02:00 13 83 0 0 56 0 1014,1
8 Rauco 06-05-2026 01:45 12,8 84 0 0,4 69 0 1014
7 Rauco 06-05-2026 01:30 12,8 84 0 0,4 69 0 1014,2
6 Rauco 06-05-2026 01:15 12,9 84 0 0,4 69 0 1014,1
5 Rauco 06-05-2026 01:00 13 84 0 0,9 64 0 1013,9
4 Rauco 06-05-2026 00:45 13,2 84 0 1,8 51 0 1013,9
3 Rauco 06-05-2026 00:30 13,4 84 0 0,9 75 0 1014,1
2 Rauco 06-05-2026 00:15 13,5 83 0 0,9 64 0 1014,3
1 Rauco 06-05-2026 00:00 13,5 83 0 0,9 62 0 1014,4